User: anonymous   Login
Location: Dentlein
(49.1477°N, 10.4231°E)
Time: 15:35:18
(UTC+00:00)
Language:

CZ-2C R/B - Orbit

View from above orbital plane
View from above orbital plane
View from above satellite
View from above satellite

Ground track
Ground track

The orbit data is extracted from the following two-line orbital elements,

1 31114U 07010B   24206.95874465  .00000393  00000-0  20093-3 0  9992
2 31114  98.3375 340.8292 0058682 217.5738 142.1332 14.19820106895603
Epoch (UTC): 24 July 2024 23:00:35
Eccentricity: 0.0058682
inclination: 98.3375°
perigee height: 783 km
apogee height: 868 km
right ascension of ascending node: 340.8292°
argument of perigee: 217.5738°
revolutions per day: 14.19820106
mean anomaly at epoch: 142.1332°
orbit number at epoch: 89560

The dashed part of the orbit path shows where the satellite is in the earth's shadow,  

DLR